Regional Weather Roundup
Issued by NWS Kansas City/Pleasant Hill, MO

Home | Current Version | Previous Version | Graphics & Text | Print | Product List | Glossary Off
Versions: 1 2 3 4 5 6 7 8 9 10 11 12 13 14 15 16 17 18 19 20 21 22 23 24 25 26 27 28 29 30 31 32 33 34 35 36 37 38 39 40 41 42 43 44 45 46 47 48 49 50

000
ASUS43 KEAX 291611
RWREAX

WEATHER ROUNDUP FOR EASTERN KANSAS AND NORTHWEST MISSOURI
NATIONAL WEATHER SERVICE KANSAS CITY/PLEASANT HILL MO
1100 AM CDT SUN MAR 29 2015

KSZ040-057-103>105-MOZ028-029-037-043-291700-
...KANSAS CITY METROPOLITAN AREA...

CITY           SKY/WX    TMP DP  RH WIND       PRES   REMARKS
K.C. INTL      PTSUNNY   51  40  65 SW14      29.99R
K.C. DOWNTOWN  MOSUNNY   52  38  58 SW8       30.00R
LEES SUMMIT    NOT AVBL
OLATHE - IXD   MOSUNNY   50  39  66 S14       30.00R
OLATHE - OJC   PTSUNNY   49  39  68 SW10G22   29.99R
LAWRENCE       MOSUNNY   52  40  63 W13       30.01R

$$

MOZ001>008-011>017-020>025-030>033-038>040-044>046-053-054-291700-
...NORTHERN AND CENTRAL MISSOURI...

CITY           SKY/WX    TMP DP  RH WIND       PRES   REMARKS
ST. JOSEPH     PTSUNNY   50  40  68 SW8       29.98S
MOSBY          PTSUNNY   50  37  62 SW12      30.00R
WARRENSBURG    PTSUNNY   46  34  61 S16G22    30.01S
WHITEMAN AFB   PTSUNNY   46  36  69 S17G23    29.98F
CLINTON        CLOUDY    46  36  66 S12       30.05F
SEDALIA        LGT RAIN  45  35  68 S15       30.01F
WARSAW         NOT AVBL
MARSHALL       CLOUDY    46  37  71 SW13G21   30.01S
CHILLICOTHE      N/A     47  37  68 SW15G21   29.98F
MOBERLY        PTSUNNY   48  32  53 SW18      30.00R
KIRKSVILLE     PTSUNNY   44  35  70 SW21G28   29.97R

$$

MOZ041-047>049-056>058-063>065-088>090-097-291700-
...EASTERN AND SOUTHERN MISSOURI...

CITY           SKY/WX    TMP DP  RH WIND       PRES   REMARKS
ST. LOUIS INTL PTSUNNY   49  22  34 S12G28    30.09F
SPIRIT OF STL  PTSUNNY   50  23  34 VRB6G21   30.08F
COLUMBIA       CLOUDY    46  30  53 S22G29    30.02F
JEFFERSON CITY CLOUDY    48  29  47 S16       30.06R
HANNIBAL       PTSUNNY   50  27  40 S18G28    29.96F
ROLLA          MOSUNNY   48  30  49 S26G36    30.02F
LEBANON        PTSUNNY   50  34  53 S18       30.05F
OSAGE BEACH    PTSUNNY   48  30  49 S10       30.08R
SPRINGFIELD    PTSUNNY   49  32  52 S9        30.07R
BRANSON        MOSUNNY   54  36  50 SE14G20   30.05S
NEVADA         CLOUDY    48  37  66 SW5       30.05F
JOPLIN         MOSUNNY   57  39  51 SW12G20   30.04F
WEST PLAINS    PTSUNNY   45  30  55 S15       30.14F

$$

IAZ060-094-KSZ022-034>040-054-083-096-NEZ052-066-093-291700-
...KANSAS...SOUTHEAST NEBRASKA AND IOWA...

CITY           SKY/WX    TMP DP  RH WIND       PRES   REMARKS
TOPEKA         PTSUNNY   56  43  61 W8        30.00R
EMPORIA        PTSUNNY   56  44  64 SW10      30.00R
CHANUTE        CLOUDY    50  39  66 S9        30.03S
WICHITA        PTSUNNY   58  46  64 NW6       30.00R
OMAHA          PTSUNNY   58  37  45 NW24G31   29.92S
LINCOLN        MOSUNNY   61  36  39 NW28G41   29.99R
FALLS CITY     PTSUNNY   58  41  53 W13       29.97R
LAMONI         CLOUDY    49  40  71 SW16      29.92F
DES MOINES     CLOUDY    50  40  68 SW20      29.87S

$$



USA.gov is the U.S. government's official web portal to all federal, state and local government web resources and services.